Satellite: AUBIESAT Catalog number: 37854 Epoch time: 13302.35841718 Element set: 618 Inclination: 101.7018 deg RA of node: 219.3453 deg Eccentricity: 0.0230815 Arg of perigee: 000.7439 deg Mean anomaly: 111.0596 deg Mean motion: 14.85678118 rev/day Decay rate: 1.7062e-04 rev/day^2 Epoch rev: 10837 Checksum: 289
Satellite: HRBE Catalog number: 37855 Epoch time: 13302.45338398 Element set: 625 Inclination: 101.7021 deg RA of node: 219.1366 deg Eccentricity: 0.0231978 Arg of perigee: 001.1657 deg Mean anomaly: 059.3506 deg Mean motion: 14.85266611 rev/day Decay rate: 1.6780e-04 rev/day^2 Epoch rev: 10837 Checksum: 299
Satellite: RS-39 Catalog number: 38051 Epoch time: 13302.74021499 Element set: 920 Inclination: 051.6347 deg RA of node: 279.3425 deg Eccentricity: 0.0011742 Arg of perigee: 038.4586 deg Mean anomaly: 019.5828 deg Mean motion: 15.36698867 rev/day Decay rate: 2.7463e-04 rev/day^2 Epoch rev: 9844 Checksum: 339
Satellite: E-STAR Catalog number: 38079 Epoch time: 13302.83030611 Element set: 564 Inclination: 069.4707 deg RA of node: 216.3261 deg Eccentricity: 0.0553758 Arg of perigee: 316.8631 deg Mean anomaly: 148.1169 deg Mean motion: 14.62107754 rev/day Decay rate: 1.06195e-03 rev/day^2 Epoch rev: 8930 Checksum: 304
Satellite: GOLIAT Catalog number: 38085 Epoch time: 13302.76717047 Element set: 502 Inclination: 069.4727 deg RA of node: 219.8738 deg Eccentricity: 0.0565211 Arg of perigee: 318.6737 deg Mean anomaly: 037.2748 deg Mean motion: 14.59264770 rev/day Decay rate: 9.2409e-04 rev/day^2 Epoch rev: 8920 Checksum: 333
Satellite: HORYU-2 Catalog number: 38340 Epoch time: 13301.82452802 Element set: 649 Inclination: 098.2325 deg RA of node: 250.7617 deg Eccentricity: 0.0011769 Arg of perigee: 183.2262 deg Mean anomaly: 176.8877 deg Mean motion: 14.71288140 rev/day Decay rate: 1.957e-05 rev/day^2 Epoch rev: 7776 Checksum: 321
Satellite: RS-40 Catalog number: 38736 Epoch time: 13302.34361306 Element set: 409 Inclination: 082.4773 deg RA of node: 071.4734 deg Eccentricity: 0.0021671 Arg of perigee: 035.7221 deg Mean anomaly: 324.5315 deg Mean motion: 12.42872377 rev/day Decay rate: 1.0e-07 rev/day^2 Epoch rev: 5691 Checksum: 272
Satellite: PROITERES Catalog number: 38756 Epoch time: 13302.76743545 Element set: 251 Inclination: 098.2433 deg RA of node: 022.2224 deg Eccentricity: 0.0013617 Arg of perigee: 041.9365 deg Mean anomaly: 318.2886 deg Mean motion: 14.74394202 rev/day Decay rate: 9.16e-06 rev/day^2 Epoch rev: 6122 Checksum: 284
Satellite: RAIKO Catalog number: 38852 Epoch time: 13218.07382584 Element set: 340 Inclination: 051.6160 deg RA of node: 184.0336 deg Eccentricity: 0.0004489 Arg of perigee: 261.9162 deg Mean anomaly: 100.6538 deg Mean motion: 16.48474690 rev/day Decay rate: 2.4681979e-01 rev/day^2 Epoch rev: 4784 Checksum: 326
Satellite: BEESAT-3 Catalog number: 39134 Epoch time: 13302.88319711 Element set: 406 Inclination: 064.8765 deg RA of node: 145.2643 deg Eccentricity: 0.0003307 Arg of perigee: 311.8843 deg Mean anomaly: 048.1984 deg Mean motion: 15.01349440 rev/day Decay rate: 5.009e-05 rev/day^2 Epoch rev: 2904 Checksum: 285
Satellite: BEESAT-2 Catalog number: 39136 Epoch time: 13302.82344594 Element set: 396 Inclination: 064.8764 deg RA of node: 145.5040 deg Eccentricity: 0.0003237 Arg of perigee: 311.2458 deg Mean anomaly: 048.8380 deg Mean motion: 15.01210529 rev/day Decay rate: 4.430e-05 rev/day^2 Epoch rev: 2903 Checksum: 274
/EX